Find Starlink 32480

NORAD ID: 62039 Int'l Des: 2024-216 Owner: SPXS Country: US Constellation: starlink operational
LEOCIRCULAR

Current View

Loading 3D Globe...

About Starlink 32480

Starlink 32480 (NORAD 62039) is a starlink constellation satellite (v2 mini) launched Nov 21, 2024 by SPXS of US. It operates in LEO, CIRCULAR orbit with a mass of 730.00 kg.

Upcoming Passes

Passes for default location (London). Set your location on the main map for personalized predictions.

Altitude History

Loading altitude history...

Two-Line Element Set

1 62039U 24216H 26263.28187391 .00009950 00000-0 37049-3 0 9992
2 62039 42.9988 237.5706 0001369 267.3307 92.7388 15.27589275102471
Epoch: Sep 20, 2026 • Age: 23 hours

Current Status

Altitude 495.4 km
Apogee / Perigee N/A
Velocity 7.62 km/s
Sub-Earth Point -43.13°S, 51.12°E
Launch Date Nov 21, 2024
Age 1.8 years
Type internet

Technical Details

Classification Payload
Mass 730.00 kg
Dry Mass 700.00 kg
Length 0.30 m
Span 29.00 m
Shape ? Box + pan
Manufacturer SPXS
Bus Type Starlink V2M
Phase Status In Orbit
Owner/State SPXS/US

Most Searched